STARLINK-1560, 46036

Orbit data source: Space-Track

STARLINK-1560, 46036 is a payload satellite owned by SpaceX/Seattle (US) in LEO that was launched on Fri, 07 Aug 2020 UTC via an FALCON 9 launch vehicle from the Air Force Eastern Test Range (AFETR). Payload-class satellites include a variety of spacecraft equipped with specific instruments for various scientific and technological missions. These include communications satellites like Starlink; space stations such as the ISS; scientific satellites like the Hubble; Earth observation satellites from companies like Planet Labs, Umbra, and HawkEye 360; GPS; miniature CubeSats for education and research; and military/defense satellites.

Loading next visibility...
Identifier
46036, 2020-055K
Orbit
LEO
Last TLE update
18 hours ago
Origin
Manufacturer
SpaceX/Seattle
Mission
Operational Commercial Communications
Bus & Motor
STARLINK, Unknown motor
Mass
260 kg wet, ~248 kg dry
Launch date (UTC)
2020-08-07 (5 years ago)
Launch vehicle
FALCON 9
Launch site
Air Force Eastern Test Range (AFETR)
Object type
Payload
Rocket body
Debris
Shape & HBR
Box + 1 Pan, 8.86 m
Radar Cross Section
13.562 m², Large (>1 m²)

Expand to show TLE details & history

TLE from 18 hours ago
0 STARLINK-1560
1 46036U 20055K   25186.19228668 -.00003151  00000-0 -19277-3 0  9996
2 46036  53.0538 157.6753 0001487  93.5380 266.5779 15.06393324271599
Epoch: 2025-07-05T04:36Z
TLE epoch observation values (Epoch: 2025-07-05T04:36:53.569Z)
Latitude
-0.00001°
Longitude
165.01823°
Altitude
548.173 km
Speed
7.589 km/s
True Right ascension
10h 30m 42s
True Declination
0° 00' 00"
Sunlit
Object was in daylight at epoch
Visualization orbit readout
Latitude
7.92428°
Longitude
-24.37553°
Altitude
547.163 km
Speed
7.59 km/s
Apparent Right ascension
22h 16m 27s
Apparent Declination
-14° 58' 24"
Sunlit
Object is in full shadow
Visualization observer readout
Local Sidereal Time
10:49:10
Azimuth
18.311° NNE
Elevation
-64.052°
Doppler factor
1
Orbital elements
Apogee altitude
548.533 km
Perigee altitude
546.473 km
Semi-major axis
6,925.64 km
Eccentricity
0.00015
Inclination
53.0538°
RAAN
157.6753°
Arg. of periapsis
93.538°
True anomaly
Unknown
Mean anomaly
266.5779°
Eccentric anomaly
Unknown
Mean motion
3.76577 °/min
Orbital period
95.6 mins
BSTAR
-0.00019277
Loading maneuver chart data...
Loading SW <> Apogee altitude chart data...
Loading historical data...
Loading historical data...
Loading historical data...
Loading historical data...
Loading historical data...
Loading historical data...
Loading historical data...

STARLINK-1560 Visibility forecast

Observer location: undefined°, undefined°

Span
Click to sort rows by Start time (UTC) header in descending order
Start Az.
Max El. time (UTC)
Max El. Az.
Max El.
End time (UTC)
End Az.
6 mins2025-07-05 23:51:55.128Z188.026° SSW2025-07-05 23:54:55.128Z141.41° SSE23.933°2025-07-05 23:57:55.128Z80.253° E
6 mins2025-07-06 01:31:55.128Z260.155° W2025-07-06 01:34:55.128Z336.397° NNW34.534°2025-07-06 01:37:55.128Z36.325° NE
6 mins2025-07-06 06:33:55.128Z333.285° NNW2025-07-06 06:36:55.128Z41.669° NE27.883°2025-07-06 06:39:55.128Z92.433° ESE
6 mins2025-07-06 08:13:55.128Z284.27° WNW2025-07-06 08:15:55.128Z234.293° WSW32.908°2025-07-06 08:19:55.128Z156.743° SSE
|